Wind_Speed
10 9 11 10 6 7 9 11 11 12 13 13 8 10 9 10 10 11 13 13 17 22 27 28 30 33 36 38 39 41 41 43
16 13 14 15 12 13 15 16 13 14 16 13 12 10 10 9 10 10 12 17 21 24 26 32 35 36 37 38 39 41 42 42
18 17 18 19 20 18 18 18 15 13 15 14 14 11 11 13 13 16 18 23 27 31 35 34 35 37 37 38 39 41 42 42
23 23 24 24 23 22 21 19 13 16 12 11 13 14 18 19 18 19 25 27 30 34 36 37 36 35 36 37 38 41 43 42
26 24 26 28 27 24 21 20 17 11 17 14 14 19 22 20 23 25 28 32 33 35 35 34 34 36 37 38 38 39 40 42
25 21 21 24 24 20 25 23 16 16 15 15 18 18 23 25 26 28 29 31 35 34 33 33 35 36 37 37 38 39 39 39
24 23 18 23 23 26 24 20 18 17 18 18 18 22 28 28 31 33 34 37 35 33 33 36 37 37 37 36 37 39 41 42
18 20 18 25 27 22 20 21 20 19 19 19 22 25 30 32 34 37 42 38 35 35 36 38 39 38 37 37 38 41 36 33
26 29 32 28 24 22 21 23 22 23 22 23 26 29 32 36 36 39 42 38 35 36 39 40 41 39 40 39 40 37 33 29
22 26 27 27 27 25 24 25 28 26 27 29 31 31 35 38 40 42 37 35 35 38 40 40 40 42 43 42 38 33 30 27
23 28 29 29 29 29 28 28 32 31 31 34 35 36 37 39 42 38 37 34 36 39 40 40 38 39 42 40 37 31 31 28
23 27 30 32 33 32 30 32 35 34 34 36 39 39 41 42 39 39 35 34 37 39 40 39 38 38 37 33 31 28 25 21
24 26 28 34 35 33 32 34 38 38 38 39 41 42 45 40 40 37 35 36 39 39 38 38 39 39 37 31 27 26 21 26
25 29 31 37 37 36 36 35 39 41 41 42 43 45 45 42 34 34 34 38 38 38 37 39 38 34 33 28 25 25 23 26
27 30 35 41 43 39 38 39 40 42 44 40 45 48 45 38 35 31 33 37 38 38 38 38 36 32 28 27 24 25 25 28
25 31 35 40 46 45 42 41 42 42 40 39 42 43 44 35 32 33 32 35 37 37 38 36 35 32 23 25 26 28 29 29
26 31 35 41 47 45 39 39 41 41 37 40 45 45 44 40 37 31 30 34 36 38 37 34 33 33 23 25 25 28 29 30
21 28 32 34 35 36 36 38 40 41 37 42 44 50 46 32 27 27 30 34 37 38 36 34 34 33 29 24 23 27 29 30
21 22 23 28 31 35 36 37 41 42 40 41 51 49 39 36 26 28 31 34 34 33 33 32 36 34 33 28 26 29 29 30
Wind_Direction
201 192 206 232 224 234 245 262 273 288 300 301 293 288 290 285 282 282 291 295 303 307 308 310 309 307 306 306 306 306 308 309
217 207 219 236 261 252 252 262 273 284 291 288 282 278 275 281 278 289 314 324 323 315 312 309 308 308 309 309 310 310 309 307
220 208 227 240 252 252 248 253 259 260 264 275 274 290 289 287 287 300 313 315 316 318 316 312 311 311 311 310 310 310 308 309
233 221 229 234 241 252 252 257 238 245 265 259 264 269 281 291 306 320 326 320 314 313 312 311 313 311 311 311 311 309 309 309
241 234 236 239 244 247 252 238 237 242 246 263 272 286 297 302 302 307 313 313 313 314 312 313 312 312 314 314 310 308 308 306
238 244 240 246 242 228 216 234 238 238 259 275 282 293 293 294 293 289 307 317 315 311 312 313 315 316 314 312 310 310 309 304
230 244 249 228 218 221 229 242 240 251 271 281 291 292 289 293 296 293 294 316 312 314 316 317 318 316 315 315 316 314 310 304
213 223 231 201 231 226 242 246 254 264 274 285 287 288 291 295 300 294 293 313 312 317 319 320 317 318 319 318 317 313 309 300
212 219 225 236 227 238 250 259 262 269 279 283 282 288 290 294 299 299 308 311 315 321 320 318 317 320 319 321 318 315 308 297
221 223 241 241 234 248 257 263 264 273 277 280 281 285 295 296 298 308 313 311 321 318 317 318 320 322 322 323 320 311 305 294
217 224 241 248 246 254 259 266 271 278 280 280 283 284 288 291 297 315 311 318 317 314 315 319 322 321 321 321 316 312 305 300
237 232 240 250 256 259 266 268 276 283 289 285 283 282 285 289 304 312 310 317 313 313 318 320 319 319 320 320 314 309 297 292
241 243 242 249 260 266 272 272 278 287 289 284 280 282 285 297 307 307 316 312 311 314 317 317 320 325 324 322 311 309 291 290
239 243 244 256 266 269 273 276 277 285 282 281 282 282 285 294 304 307 309 310 313 315 318 319 323 323 318 319 311 305 300 284
243 246 249 258 269 274 273 272 275 278 278 279 279 282 289 297 298 303 305 310 315 315 318 320 322 323 315 312 305 309 303 294
252 249 252 259 269 278 280 276 278 280 278 271 274 280 288 288 291 292 306 314 312 315 323 323 321 321 309 310 303 303 301 299
255 254 254 258 267 278 285 283 282 281 275 270 270 278 282 285 287 303 315 312 318 323 322 322 318 311 310 306 299 299 300 301
270 259 263 271 279 285 284 283 281 284 277 267 270 275 279 280 298 318 316 320 324 318 318 316 313 308 314 312 306 304 302 304
282 277 280 288 290 284 279 281 283 283 274 264 268 274 276 285 307 324 322 319 314 315 311 307 307 306 309 310 305 306 305 306
Height
3151 3152 3153 3152 3154 3155 3157 3157 3158 3158 3159 3159 3157 3157 3156 3156 3156 3155 3153 3153 3152 3150 3146 3146 3143 3140 3136 3133 3129 3126 3123 3118
3151 3152 3152 3151 3152 3154 3156 3156 3157 3157 3156 3155 3154 3154 3154 3154 3153 3152 3151 3149 3148 3146 3144 3140 3137 3134 3130 3126 3122 3118 3115 3111
3149 3150 3150 3150 3151 3152 3153 3154 3155 3154 3153 3152 3152 3151 3150 3150 3150 3149 3148 3146 3143 3141 3138 3134 3131 3126 3123 3119 3114 3109 3105 3102
3145 3147 3148 3148 3147 3147 3149 3150 3151 3151 3152 3152 3150 3148 3147 3145 3144 3144 3142 3141 3139 3135 3130 3126 3123 3120 3116 3111 3107 3101 3096 3093
3140 3142 3143 3144 3144 3145 3146 3146 3147 3148 3147 3148 3147 3145 3143 3143 3139 3138 3136 3133 3130 3127 3123 3120 3116 3111 3107 3102 3098 3093 3089 3084
3134 3136 3137 3140 3140 3141 3142 3141 3144 3144 3144 3144 3142 3141 3138 3136 3135 3134 3131 3127 3123 3120 3116 3113 3109 3104 3099 3094 3089 3085 3081 3077
3130 3131 3133 3134 3135 3136 3137 3138 3139 3139 3140 3139 3138 3136 3134 3132 3130 3128 3125 3121 3117 3113 3109 3104 3100 3096 3091 3085 3080 3075 3070 3064
3127 3127 3129 3130 3130 3132 3134 3134 3134 3134 3135 3134 3133 3131 3128 3126 3124 3121 3117 3114 3109 3104 3100 3096 3091 3086 3081 3076 3071 3065 3060 3054
3125 3126 3125 3126 3127 3129 3130 3129 3129 3129 3129 3128 3126 3125 3123 3120 3118 3115 3110 3106 3100 3095 3092 3087 3082 3078 3072 3068 3062 3055 3050 3045
3121 3121 3121 3122 3124 3126 3126 3125 3123 3124 3123 3122 3120 3119 3115 3113 3110 3107 3102 3097 3091 3088 3083 3079 3072 3067 3061 3057 3050 3045 3041 3038
3119 3119 3117 3117 3120 3121 3121 3120 3117 3118 3117 3116 3114 3112 3109 3106 3103 3099 3095 3088 3084 3080 3076 3070 3065 3059 3052 3047 3042 3037 3033 3029
3115 3115 3115 3113 3114 3115 3116 3114 3110 3111 3110 3109 3106 3104 3101 3097 3093 3090 3085 3080 3076 3072 3067 3062 3057 3052 3047 3041 3036 3032 3028 3025
3111 3111 3112 3109 3107 3108 3110 3108 3105 3104 3103 3101 3098 3095 3092 3087 3084 3081 3075 3073 3069 3064 3058 3053 3048 3041 3036 3033 3029 3026 3024 3020
3109 3108 3107 3104 3103 3103 3102 3102 3099 3096 3094 3092 3090 3087 3084 3079 3076 3072 3068 3065 3060 3056 3050 3044 3039 3033 3029 3026 3021 3016 3013 3013
3107 3105 3101 3099 3097 3097 3096 3094 3092 3089 3087 3086 3082 3077 3075 3070 3067 3064 3060 3057 3053 3048 3042 3036 3031 3027 3022 3019 3015 3013 3011 3005
3103 3103 3099 3094 3092 3090 3089 3087 3085 3083 3081 3079 3074 3069 3066 3062 3058 3054 3051 3048 3045 3040 3034 3029 3024 3021 3017 3014 3010 3007 3004 3000
3101 3099 3095 3091 3087 3084 3083 3081 3077 3076 3077 3073 3067 3062 3057 3052 3049 3047 3045 3042 3037 3031 3027 3023 3019 3013 3012 3008 3004 3001 2997 2993
3092 3091 3089 3087 3083 3079 3077 3074 3071 3069 3070 3065 3059 3054 3049 3046 3043 3042 3038 3033 3030 3026 3021 3017 3014 3009 3006 3002 2998 2994 2991 2987
3084 3083 3082 3080 3077 3073 3070 3069 3065 3062 3061 3056 3048 3043 3039 3036 3033 3033 3032 3028 3024 3020 3016 3012 3008 3003 3000 2997 2992 2988 2984 2980